Location: Fort Wayne
(41.1310°N, 85.1290°W)
Time: 23:34:47
(UTC-04:00)

Helios 1B - Visible Passes

Search period start: 22 June 2017 00:00
Search period end: 02 July 2017 00:00
Orbit: 622 x 622 km, 98.2° (Epoch: 22 June)

Date Brightness Start Highest point End Pass type
(mag) Time Alt. Az. Time Alt. Az. Time Alt. Az.
22 Jun 5.6 01:34:00 37° ENE 01:34:13 37° ENE 01:38:13 10° N visible
22 Jun 6.4 03:11:13 18° W 03:11:13 18° W 03:13:34 10° NW visible
23 Jun 4.9 01:52:07 58° ENE 01:52:07 58° ENE 01:56:19 10° N visible
23 Jun 6.9 03:29:19 12° W 03:29:19 12° W 03:30:18 10° WNW visible
24 Jun 4.6 02:10:14 77° NNW 02:10:14 77° NNW 02:14:17 10° NNW visible
25 Jun 6.9 00:51:08 13° E 00:52:12 14° ENE 00:54:29 10° NNE visible
25 Jun 5.0 02:28:21 52° WNW 02:28:21 52° WNW 02:32:07 10° NNW visible
26 Jun 6.4 01:09:15 20° E 01:09:54 21° ENE 01:13:10 10° NNE visible
26 Jun 5.6 02:46:28 33° WNW 02:46:28 33° WNW 02:49:48 10° NNW visible
27 Jun 5.8 01:27:22 31° ENE 01:27:40 31° ENE 01:31:31 10° N visible
27 Jun 6.2 03:04:35 22° W 03:04:35 22° W 03:07:16 10° NW visible
28 Jun 5.2 01:45:30 48° ENE 01:45:30 48° ENE 01:49:41 10° N visible
28 Jun 6.7 03:22:42 14° WNW 03:22:42 14° WNW 03:24:20 10° WNW visible
29 Jun 4.7 02:03:37 73° NE 02:03:37 73° NE 02:07:41 10° N visible
30 Jun 7.0 00:44:32 11° ENE 00:45:42 12° ENE 00:47:22 10° NE visible
30 Jun 4.8 02:21:44 61° WNW 02:21:44 61° WNW 02:25:34 10° NNW visible
01 Jul 6.6 01:02:40 17° ENE 01:03:24 18° ENE 01:06:20 10° NNE visible
01 Jul 5.4 02:39:52 39° WNW 02:39:52 39° WNW 02:43:19 10° NNW visible
